Regional Weather Roundup
Issued by NWS

Home | Current Version | Previous Version | Text Only | Print | Product List | Glossary On
Versions: 1 2 3 4 5 6 7 8 9 10 11 12 13 14 15 16 17 18 19 20 21 22 23 24 25 26 27 28 29 30 31 32 33 34 35 36 37 38 39 40 41 42 43 44 45 46 47 48 49 50
000
ASUS43 KTOP 080708
RWRKS

WEATHER ROUNDUP FOR KANSAS
NATIONAL WEATHER SERVICE GOODLAND KS
200 AM CDT WED JUL 08 2015

NOTE:  "FAIR" INDICATES FEW OR NO CLOUDS BELOW 12,000 FEET WITH NO
SIGNIFICANT WEATHER AND/OR OBSTRUCTIONS TO VISIBILITY.

KSZ001>006-013>018-027>032-041>047-080800-
NORTHWEST KANSAS

CITY           SKY/WX    TMP DP  RH WIND       PRES   REMARKS
GOODLAND       CLOUDY    59  46  62 SE10      30.09F
HAYS           CLEAR     57  45  62 E3        30.07F
HILL CITY      PTCLDY    56  49  77 E6        30.09S
RUSSELL        CLEAR     56  51  84 SE6       30.06F
$$

KSZ061>065-074>080-084>089-080800-
SOUTHWEST KANSAS

CITY           SKY/WX    TMP DP  RH WIND       PRES   REMARKS
DODGE CITY     CLEAR     54  46  74 S3        30.07F
ELKHART          N/A     56  46  69 SE8         N/A
GARDEN CITY    PTCLDY    54  48  80 S5        30.08S
GREAT BEND     CLEAR     57  48  72 CALM      30.07F
LIBERAL        CLEAR     55  45  67 CALM      30.09F
PRATT          CLOUDY    61  50  67 NE5       30.05F
$$

KSZ066>073-081>083-090>101-080800-
SOUTHEAST KANSAS

CITY           SKY/WX    TMP DP  RH WIND       PRES   REMARKS
CHANUTE        LGT RAIN  64  63  96 NE6       30.00F FOG
COFFEYVILLE    CLOUDY    65  65 100 NE8       29.97F FOG
HUTCHINSON     CLOUDY    62  57  83 E5        30.04F
MEDICINE LODGE   N/A     62  59  90 E8        30.01F
NEWTON         CLOUDY    61  55  82 NE6       30.05F
PARSONS        CLOUDY    65  64  97 VRB3      29.99F FOG
WICHITA INTL   CLOUDY    63  60  90 NE8       30.01F FOG
WICHITA JABRA  CLOUDY    62  60  93 NE7       30.01F
WICHITA MCCONL CLOUDY    63  62  96 NE8       30.01F
WINFIELD       CLOUDY    63  62  97 NE10      29.99F FOG
$$

KSZ007>012-019>026-033>040-048>060-102>105-080800-
NORTHEAST KANSAS

CITY           SKY/WX    TMP DP  RH WIND       PRES   REMARKS
CONCORDIA      CLEAR     59  52  77 CALM      30.07F
EMPORIA        LGT RAIN  63  61  93 NE6       30.03F FOG
LAWRENCE       LGT RAIN  65  63  93 CALM      30.04F FOG
MANHATTAN      MOCLDY    63  61  93 CALM      30.04F
MARYSVILLE     PTCLDY    57  55  94 CALM      30.07S
OLATHE IND     LGT RAIN  64  63  96 NE5       30.05F FOG
OLATHE EXE     LGT RAIN  63  62  97 NE6       30.03F FOG
SALINA         PTCLDY    61  54  77 NW5       30.05F
TOPEKA BILLARD CLOUDY    66  62  87 E5        30.04F
TOPEKA FORBES  CLOUDY    65  61  87 E5        30.04F
$$


USA.gov is the U.S. government's official web portal to all federal, state and local government web resources and services.